Precipitable_Water
0.43 0.39 0.36 0.35 0.34 0.33 0.32 0.30 0.27 0.25 0.26 0.24 0.25 0.32 0.23 0.16 0.14 0.21 0.23 0.26 0.21 0.17 0.12 0.13 0.12 0.12 0.15 0.20 0.18 0.20 0.17 0.15 0.17 0.15 0.17 0.14 0.19 0.16 0.16 0.16 0.14 0.16 0.16 0.15 0.14 0.16 0.14 0.15 0.14 0.16 0.17 0.17 0.20 0.23 0.23 0.25 0.21 0.21 0.19 0.20 0.20 0.22 0.16 0.14 0.14 0.17 0.19 0.21 0.23 0.23 0.24 0.23 0.20 0.20 0.21 0.21 0.19 0.20 0.18 0.17 0.17 0.15 0.16 0.15 0.15 0.12 0.13
0.39 0.37 0.36 0.35 0.33 0.31 0.30 0.27 0.24 0.26 0.27 0.24 0.27 0.24 0.16 0.15 0.14 0.18 0.25 0.24 0.22 0.16 0.09 0.10 0.10 0.11 0.15 0.16 0.14 0.18 0.16 0.15 0.13 0.14 0.16 0.14 0.14 0.15 0.14 0.16 0.18 0.15 0.18 0.16 0.14 0.18 0.12 0.18 0.17 0.16 0.18 0.16 0.25 0.24 0.23 0.24 0.20 0.20 0.19 0.16 0.23 0.15 0.17 0.15 0.12 0.12 0.14 0.17 0.20 0.20 0.22 0.22 0.19 0.19 0.21 0.21 0.22 0.21 0.20 0.20 0.19 0.15 0.15 0.16 0.14 0.10 0.13
0.38 0.37 0.35 0.34 0.31 0.29 0.28 0.26 0.27 0.29 0.31 0.31 0.29 0.17 0.17 0.16 0.19 0.17 0.19 0.22 0.16 0.10 0.18 0.12 0.10 0.10 0.10 0.11 0.10 0.11 0.13 0.16 0.17 0.15 0.13 0.16 0.15 0.14 0.14 0.17 0.17 0.15 0.18 0.16 0.17 0.18 0.15 0.14 0.18 0.17 0.17 0.18 0.24 0.24 0.23 0.25 0.21 0.24 0.24 0.22 0.24 0.17 0.16 0.15 0.11 0.10 0.09 0.09 0.10 0.12 0.15 0.18 0.20 0.21 0.20 0.21 0.20 0.20 0.19 0.16 0.16 0.14 0.16 0.16 0.14 0.13 0.15
0.37 0.36 0.34 0.31 0.29 0.28 0.28 0.29 0.29 0.29 0.29 0.28 0.28 0.19 0.17 0.13 0.08 0.18 0.18 0.17 0.15 0.15 0.19 0.14 0.10 0.10 0.10 0.09 0.10 0.12 0.10 0.14 0.17 0.17 0.14 0.16 0.15 0.16 0.16 0.17 0.17 0.15 0.16 0.14 0.14 0.15 0.18 0.15 0.15 0.16 0.16 0.18 0.21 0.23 0.23 0.24 0.23 0.24 0.24 0.23 0.22 0.17 0.18 0.17 0.15 0.14 0.13 0.15 0.17 0.21 0.21 0.20 0.18 0.19 0.19 0.20 0.21 0.21 0.20 0.19 0.16 0.14 0.15 0.14 0.15 0.16 0.16
0.35 0.33 0.31 0.29 0.28 0.29 0.30 0.31 0.29 0.30 0.29 0.30 0.24 0.24 0.14 0.14 0.09 0.10 0.08 0.13 0.14 0.11 0.14 0.12 0.11 0.08 0.11 0.07 0.10 0.09 0.10 0.12 0.11 0.18 0.11 0.15 0.14 0.14 0.14 0.14 0.13 0.14 0.14 0.14 0.14 0.17 0.16 0.18 0.16 0.16 0.16 0.18 0.20 0.24 0.24 0.24 0.25 0.24 0.23 0.23 0.21 0.18 0.15 0.16 0.17 0.17 0.18 0.19 0.19 0.21 0.21 0.19 0.20 0.19 0.19 0.20 0.21 0.21 0.19 0.17 0.15 0.19 0.16 0.12 0.16 0.18 0.16
0.32 0.31 0.30 0.30 0.30 0.31 0.32 0.31 0.29 0.28 0.26 0.28 0.29 0.16 0.17 0.10 0.16 0.15 0.14 0.09 0.09 0.09 0.09 0.12 0.10 0.11 0.11 0.10 0.11 0.09 0.09 0.09 0.08 0.13 0.15 0.16 0.16 0.11 0.13 0.14 0.14 0.14 0.14 0.15 0.12 0.15 0.15 0.16 0.15 0.18 0.18 0.18 0.20 0.19 0.24 0.22 0.25 0.24 0.22 0.24 0.20 0.17 0.14 0.18 0.18 0.17 0.19 0.21 0.20 0.21 0.21 0.21 0.21 0.20 0.20 0.19 0.20 0.20 0.18 0.18 0.19 0.19 0.16 0.13 0.16 0.18 0.17
0.31 0.31 0.31 0.31 0.32 0.31 0.31 0.29 0.28 0.28 0.25 0.25 0.21 0.12 0.19 0.14 0.12 0.11 0.16 0.09 0.10 0.09 0.11 0.13 0.10 0.09 0.10 0.09 0.09 0.08 0.08 0.08 0.10 0.10 0.10 0.12 0.12 0.13 0.09 0.12 0.13 0.14 0.16 0.15 0.13 0.15 0.12 0.12 0.18 0.17 0.16 0.17 0.17 0.16 0.20 0.24 0.27 0.25 0.22 0.22 0.22 0.18 0.16 0.17 0.18 0.17 0.18 0.19 0.20 0.21 0.21 0.21 0.21 0.20 0.20 0.21 0.20 0.20 0.19 0.18 0.20 0.19 0.17 0.18 0.18 0.18 0.17
0.32 0.32 0.31 0.31 0.31 0.30 0.29 0.28 0.27 0.26 0.25 0.24 0.16 0.17 0.11 0.11 0.08 0.10 0.12 0.10 0.09 0.10 0.11 0.11 0.09 0.07 0.09 0.06 0.07 0.08 0.08 0.07 0.11 0.12 0.10 0.08 0.10 0.15 0.10 0.11 0.14 0.15 0.15 0.15 0.13 0.14 0.15 0.15 0.14 0.18 0.17 0.17 0.18 0.17 0.18 0.19 0.25 0.25 0.21 0.21 0.22 0.18 0.15 0.20 0.18 0.16 0.16 0.18 0.20 0.22 0.22 0.21 0.19 0.19 0.21 0.21 0.21 0.20 0.20 0.20 0.20 0.20 0.18 0.19 0.19 0.18 0.16
0.32 0.31 0.30 0.29 0.29 0.28 0.28 0.27 0.28 0.26 0.28 0.16 0.15 0.17 0.16 0.18 0.18 0.14 0.09 0.08 0.08 0.09 0.10 0.09 0.09 0.07 0.08 0.06 0.09 0.09 0.09 0.08 0.10 0.10 0.14 0.10 0.09 0.12 0.10 0.12 0.13 0.16 0.15 0.15 0.14 0.18 0.18 0.18 0.18 0.19 0.18 0.15 0.19 0.17 0.18 0.22 0.19 0.22 0.20 0.21 0.21 0.20 0.16 0.19 0.17 0.14 0.14 0.18 0.18 0.19 0.20 0.20 0.20 0.19 0.20 0.20 0.20 0.18 0.19 0.18 0.20 0.19 0.18 0.18 0.18 0.16 0.16
0.30 0.29 0.28 0.28 0.27 0.27 0.27 0.27 0.27 0.27 0.27 0.21 0.19 0.12 0.19 0.16 0.18 0.19 0.13 0.08 0.10 0.07 0.09 0.08 0.08 0.05 0.08 0.08 0.09 0.08 0.08 0.10 0.11 0.08 0.13 0.14 0.16 0.14 0.12 0.15 0.13 0.13 0.14 0.13 0.15 0.19 0.20 0.20 0.21 0.21 0.21 0.21 0.21 0.22 0.22 0.22 0.20 0.19 0.20 0.22 0.19 0.19 0.17 0.16 0.16 0.13 0.13 0.17 0.19 0.18 0.19 0.19 0.17 0.18 0.19 0.20 0.21 0.21 0.21 0.21 0.21 0.20 0.21 0.18 0.16 0.15 0.19
0.28 0.28 0.27 0.27 0.27 0.26 0.26 0.26 0.26 0.26 0.24 0.16 0.15 0.16 0.15 0.12 0.10 0.11 0.13 0.07 0.08 0.09 0.08 0.07 0.06 0.09 0.10 0.13 0.10 0.11 0.10 0.11 0.11 0.07 0.08 0.14 0.14 0.16 0.16 0.14 0.11 0.11 0.12 0.18 0.25 0.25 0.23 0.23 0.23 0.23 0.22 0.21 0.21 0.22 0.22 0.23 0.23 0.22 0.20 0.20 0.20 0.20 0.18 0.17 0.18 0.13 0.13 0.16 0.17 0.18 0.17 0.13 0.15 0.21 0.23 0.22 0.20 0.21 0.19 0.19 0.20 0.21 0.22 0.19 0.20 0.20 0.21
0.26 0.26 0.25 0.25 0.25 0.24 0.24 0.24 0.24 0.25 0.23 0.26 0.23 0.21 0.19 0.21 0.20 0.15 0.09 0.05 0.07 0.10 0.08 0.06 0.06 0.08 0.08 0.10 0.10 0.08 0.09 0.10 0.10 0.13 0.09 0.12 0.14 0.15 0.15 0.14 0.12 0.09 0.20 0.25 0.24 0.23 0.23 0.24 0.23 0.23 0.22 0.22 0.22 0.22 0.22 0.21 0.23 0.25 0.24 0.20 0.19 0.19 0.19 0.17 0.18 0.15 0.14 0.16 0.17 0.14 0.12 0.14 0.22 0.24 0.24 0.24 0.24 0.23 0.21 0.20 0.21 0.21 0.22 0.21 0.20 0.20 0.21
0.22 0.22 0.22 0.22 0.22 0.23 0.23 0.23 0.24 0.24 0.25 0.27 0.25 0.16 0.22 0.22 0.15 0.13 0.12 0.07 0.05 0.07 0.07 0.07 0.10 0.11 0.12 0.11 0.10 0.10 0.12 0.14 0.14 0.14 0.13 0.11 0.11 0.13 0.15 0.14 0.12 0.16 0.22 0.21 0.21 0.20 0.16 0.14 0.16 0.18 0.19 0.21 0.22 0.22 0.22 0.22 0.22 0.24 0.25 0.25 0.21 0.19 0.18 0.18 0.17 0.18 0.17 0.15 0.15 0.11 0.12 0.19 0.23 0.23 0.24 0.25 0.24 0.23 0.21 0.18 0.20 0.21 0.22 0.22 0.21 0.21 0.22
0.22 0.22 0.23 0.23 0.23 0.22 0.23 0.23 0.23 0.25 0.25 0.26 0.21 0.20 0.21 0.18 0.12 0.11 0.11 0.08 0.07 0.10 0.10 0.09 0.10 0.09 0.10 0.11 0.10 0.11 0.12 0.12 0.13 0.15 0.11 0.16 0.12 0.12 0.16 0.18 0.20 0.23 0.23 0.23 0.19 0.17 0.13 0.15 0.12 0.13 0.14 0.17 0.17 0.17 0.21 0.24 0.25 0.24 0.24 0.25 0.25 0.22 0.21 0.19 0.16 0.19 0.14 0.15 0.15 0.14 0.18 0.19 0.21 0.21 0.22 0.22 0.20 0.20 0.19 0.16 0.17 0.21 0.23 0.23 0.22 0.21 0.21
0.23 0.22 0.21 0.22 0.21 0.21 0.22 0.23 0.24 0.25 0.24 0.24 0.23 0.21 0.20 0.20 0.18 0.16 0.21 0.10 0.07 0.10 0.10 0.07 0.11 0.10 0.10 0.11 0.11 0.09 0.09 0.10 0.10 0.10 0.15 0.18 0.16 0.18 0.18 0.21 0.24 0.23 0.23 0.19 0.14 0.15 0.13 0.13 0.10 0.10 0.11 0.12 0.10 0.12 0.21 0.19 0.24 0.26 0.26 0.26 0.26 0.25 0.20 0.21 0.17 0.17 0.18 0.15 0.14 0.14 0.14 0.14 0.18 0.22 0.24 0.25 0.24 0.24 0.23 0.20 0.17 0.22 0.24 0.25 0.23 0.21 0.21
0.20 0.20 0.20 0.20 0.21 0.21 0.22 0.23 0.24 0.24 0.23 0.26 0.23 0.21 0.20 0.22 0.21 0.19 0.17 0.11 0.11 0.07 0.11 0.14 0.15 0.12 0.10 0.11 0.12 0.10 0.09 0.09 0.09 0.10 0.11 0.13 0.15 0.18 0.21 0.23 0.24 0.23 0.20 0.18 0.16 0.14 0.14 0.11 0.10 0.11 0.10 0.11 0.15 0.14 0.13 0.17 0.17 0.22 0.25 0.26 0.26 0.25 0.24 0.22 0.19 0.17 0.18 0.16 0.14 0.14 0.14 0.16 0.21 0.22 0.24 0.25 0.25 0.24 0.24 0.20 0.15 0.22 0.24 0.25 0.24 0.22 0.23
0.20 0.21 0.21 0.22 0.22 0.22 0.23 0.23 0.23 0.23 0.23 0.24 0.20 0.19 0.18 0.24 0.21 0.17 0.15 0.13 0.11 0.08 0.18 0.18 0.18 0.16 0.12 0.11 0.13 0.11 0.12 0.09 0.11 0.08 0.08 0.09 0.14 0.17 0.18 0.22 0.23 0.21 0.19 0.15 0.14 0.13 0.12 0.12 0.13 0.12 0.13 0.16 0.13 0.13 0.16 0.16 0.15 0.17 0.21 0.24 0.23 0.22 0.22 0.21 0.19 0.17 0.18 0.17 0.15 0.15 0.18 0.18 0.21 0.23 0.24 0.25 0.26 0.25 0.22 0.14 0.13 0.23 0.25 0.26 0.25 0.24 0.24
0.23 0.24 0.25 0.26 0.26 0.27 0.27 0.27 0.27 0.28 0.27 0.29 0.25 0.20 0.19 0.25 0.23 0.22 0.18 0.14 0.11 0.11 0.17 0.20 0.17 0.12 0.10 0.12 0.10 0.14 0.15 0.14 0.13 0.14 0.12 0.15 0.15 0.15 0.15 0.18 0.15 0.20 0.23 0.14 0.14 0.13 0.12 0.12 0.11 0.11 0.11 0.17 0.17 0.17 0.13 0.16 0.15 0.16 0.16 0.18 0.18 0.19 0.20 0.20 0.17 0.18 0.18 0.18 0.17 0.18 0.19 0.23 0.25 0.25 0.26 0.26 0.26 0.24 0.16 0.14 0.19 0.25 0.26 0.26 0.25 0.24 0.25
0.27 0.29 0.30 0.32 0.32 0.32 0.31 0.31 0.31 0.31 0.31 0.31 0.28 0.25 0.24 0.27 0.27 0.25 0.21 0.16 0.13 0.10 0.21 0.23 0.24 0.18 0.20 0.22 0.19 0.18 0.18 0.15 0.13 0.10 0.11 0.11 0.13 0.19 0.19 0.18 0.19 0.13 0.20 0.14 0.15 0.13 0.12 0.12 0.16 0.15 0.13 0.16 0.18 0.15 0.18 0.16 0.16 0.18 0.19 0.17 0.17 0.19 0.19 0.19 0.20 0.18 0.17 0.18 0.16 0.17 0.19 0.24 0.26 0.27 0.26 0.27 0.23 0.17 0.17 0.24 0.28 0.25 0.24 0.24 0.25 0.24 0.25
0.31 0.32 0.32 0.33 0.33 0.33 0.32 0.32 0.32 0.32 0.33 0.31 0.29 0.23 0.24 0.28 0.30 0.28 0.22 0.15 0.17 0.15 0.20 0.21 0.22 0.18 0.22 0.19 0.16 0.14 0.15 0.15 0.16 0.13 0.11 0.10 0.20 0.19 0.15 0.13 0.19 0.19 0.16 0.17 0.13 0.16 0.13 0.12 0.14 0.17 0.16 0.17 0.18 0.20 0.17 0.18 0.20 0.19 0.18 0.19 0.18 0.19 0.17 0.17 0.17 0.19 0.19 0.19 0.17 0.17 0.15 0.21 0.26 0.26 0.25 0.26 0.20 0.21 0.25 0.24 0.24 0.24 0.23 0.23 0.24 0.25 0.26
0.32 0.32 0.33 0.33 0.33 0.33 0.33 0.33 0.32 0.31 0.31 0.31 0.28 0.23 0.22 0.28 0.29 0.31 0.33 0.23 0.17 0.14 0.17 0.27 0.27 0.23 0.24 0.22 0.23 0.22 0.19 0.14 0.15 0.14 0.17 0.16 0.20 0.16 0.10 0.10 0.15 0.16 0.14 0.15 0.12 0.13 0.15 0.14 0.17 0.17 0.20 0.18 0.19 0.18 0.16 0.17 0.18 0.23 0.22 0.20 0.20 0.24 0.18 0.18 0.19 0.21 0.16 0.16 0.16 0.17 0.21 0.25 0.27 0.26 0.21 0.24 0.25 0.26 0.26 0.25 0.22 0.23 0.24 0.25 0.26 0.27 0.29
0.31 0.31 0.32 0.34 0.34 0.34 0.33 0.31 0.31 0.30 0.32 0.31 0.31 0.25 0.21 0.26 0.29 0.29 0.29 0.26 0.20 0.17 0.21 0.27 0.29 0.25 0.27 0.28 0.27 0.27 0.25 0.23 0.26 0.25 0.19 0.17 0.21 0.18 0.17 0.19 0.18 0.18 0.19 0.19 0.17 0.17 0.20 0.20 0.21 0.19 0.18 0.19 0.21 0.18 0.19 0.17 0.16 0.20 0.24 0.23 0.17 0.23 0.20 0.21 0.18 0.23 0.20 0.18 0.20 0.24 0.26 0.26 0.27 0.26 0.26 0.27 0.28 0.28 0.27 0.26 0.25 0.24 0.25 0.27 0.27 0.28 0.30
0.33 0.33 0.33 0.33 0.33 0.32 0.31 0.31 0.30 0.30 0.30 0.31 0.30 0.27 0.21 0.24 0.27 0.31 0.31 0.20 0.25 0.26 0.28 0.27 0.28 0.28 0.30 0.29 0.32 0.31 0.30 0.33 0.30 0.29 0.27 0.20 0.18 0.21 0.19 0.18 0.18 0.25 0.24 0.24 0.20 0.21 0.22 0.22 0.20 0.22 0.20 0.21 0.19 0.19 0.20 0.20 0.18 0.20 0.19 0.23 0.21 0.25 0.25 0.25 0.23 0.21 0.24 0.25 0.26 0.26 0.26 0.26 0.26 0.28 0.30 0.29 0.28 0.27 0.27 0.26 0.24 0.25 0.26 0.28 0.28 0.30 0.31
0.33 0.33 0.33 0.32 0.31 0.30 0.30 0.30 0.29 0.28 0.28 0.28 0.29 0.24 0.23 0.25 0.26 0.25 0.22 0.20 0.17 0.16 0.22 0.25 0.23 0.17 0.19 0.20 0.27 0.31 0.31 0.31 0.29 0.31 0.33 0.28 0.18 0.19 0.24 0.26 0.28 0.27 0.26 0.27 0.29 0.24 0.24 0.24 0.23 0.23 0.19 0.21 0.22 0.18 0.17 0.16 0.18 0.21 0.20 0.21 0.22 0.24 0.25 0.24 0.21 0.23 0.20 0.17 0.24 0.25 0.26 0.27 0.28 0.29 0.31 0.28 0.26 0.24 0.25 0.24 0.25 0.26 0.27 0.28 0.30 0.30 0.30
0.33 0.33 0.32 0.31 0.30 0.30 0.29 0.29 0.28 0.28 0.29 0.30 0.29 0.28 0.27 0.26 0.28 0.25 0.21 0.17 0.16 0.15 0.12 0.16 0.19 0.24 0.28 0.30 0.31 0.30 0.32 0.32 0.34 0.32 0.32 0.32 0.30 0.25 0.24 0.30 0.32 0.28 0.26 0.29 0.30 0.27 0.26 0.22 0.22 0.21 0.18 0.22 0.22 0.17 0.22 0.19 0.18 0.23 0.19 0.20 0.21 0.20 0.25 0.22 0.22 0.22 0.20 0.20 0.24 0.26 0.28 0.29 0.29 0.28 0.25 0.24 0.25 0.26 0.27 0.28 0.29 0.30 0.31 0.31 0.32 0.32 0.32
0.32 0.32 0.31 0.30 0.30 0.29 0.29 0.29 0.29 0.30 0.30 0.30 0.28 0.24 0.23 0.22 0.28 0.28 0.27 0.26 0.22 0.19 0.15 0.14 0.18 0.28 0.30 0.29 0.26 0.29 0.35 0.35 0.35 0.35 0.35 0.34 0.35 0.34 0.31 0.32 0.31 0.34 0.31 0.30 0.29 0.26 0.25 0.23 0.23 0.22 0.20 0.20 0.26 0.20 0.20 0.22 0.21 0.24 0.21 0.20 0.23 0.24 0.25 0.20 0.23 0.21 0.23 0.25 0.26 0.26 0.27 0.27 0.27 0.27 0.28 0.28 0.29 0.29 0.29 0.31 0.32 0.33 0.33 0.34 0.36 0.37 0.36
0.32 0.31 0.30 0.30 0.29 0.29 0.29 0.30 0.30 0.30 0.29 0.27 0.26 0.25 0.24 0.25 0.29 0.26 0.25 0.24 0.19 0.18 0.19 0.17 0.20 0.25 0.29 0.25 0.32 0.36 0.36 0.36 0.35 0.35 0.35 0.35 0.34 0.35 0.33 0.32 0.29 0.29 0.28 0.27 0.29 0.26 0.26 0.24 0.23 0.20 0.22 0.21 0.25 0.23 0.23 0.22 0.23 0.21 0.21 0.23 0.25 0.23 0.21 0.23 0.22 0.19 0.20 0.21 0.23 0.26 0.22 0.21 0.24 0.25 0.26 0.26 0.27 0.27 0.27 0.27 0.27 0.28 0.30 0.31 0.30 0.29 0.29
0.32 0.32 0.30 0.30 0.30 0.30 0.30 0.29 0.29 0.29 0.29 0.28 0.27 0.26 0.28 0.26 0.29 0.31 0.30 0.27 0.23 0.18 0.20 0.20 0.20 0.24 0.31 0.28 0.34 0.34 0.35 0.35 0.35 0.35 0.35 0.34 0.35 0.33 0.32 0.30 0.30 0.26 0.25 0.24 0.22 0.22 0.22 0.20 0.19 0.23 0.24 0.24 0.22 0.20 0.25 0.25 0.24 0.22 0.21 0.22 0.24 0.22 0.22 0.22 0.20 0.20 0.20 0.24 0.26 0.26 0.25 0.24 0.23 0.23 0.23 0.23 0.25 0.25 0.25 0.26 0.26 0.27 0.26 0.26 0.25 0.24 0.23
0.32 0.31 0.31 0.31 0.31 0.30 0.29 0.29 0.30 0.29 0.29 0.31 0.30 0.29 0.28 0.30 0.33 0.33 0.33 0.35 0.32 0.26 0.24 0.25 0.27 0.26 0.20 0.25 0.34 0.32 0.35 0.35 0.34 0.33 0.32 0.32 0.31 0.31 0.30 0.30 0.28 0.28 0.27 0.26 0.24 0.23 0.22 0.21 0.24 0.21 0.21 0.24 0.21 0.19 0.21 0.17 0.17 0.17 0.19 0.23 0.24 0.25 0.25 0.24 0.24 0.24 0.24 0.25 0.24 0.24 0.23 0.21 0.21 0.21 0.23 0.24 0.26 0.27 0.26 0.25 0.25 0.24 0.24 0.24 0.24 0.23 0.22
0.33 0.32 0.32 0.31 0.30 0.29 0.29 0.29 0.29 0.29 0.30 0.30 0.30 0.25 0.23 0.24 0.32 0.31 0.32 0.32 0.30 0.27 0.21 0.21 0.19 0.21 0.31 0.32 0.28 0.30 0.30 0.32 0.31 0.31 0.30 0.30 0.29 0.30 0.30 0.29 0.29 0.30 0.27 0.24 0.24 0.19 0.22 0.21 0.22 0.23 0.25 0.28 0.20 0.20 0.17 0.17 0.16 0.18 0.23 0.24 0.25 0.25 0.26 0.26 0.26 0.24 0.23 0.25 0.25 0.25 0.24 0.23 0.23 0.24 0.26 0.27 0.28 0.26 0.24 0.23 0.23 0.24 0.24 0.24 0.23 0.23 0.23
0.33 0.32 0.33 0.32 0.31 0.30 0.29 0.29 0.29 0.31 0.30 0.27 0.26 0.20 0.20 0.18 0.25 0.33 0.30 0.31 0.34 0.31 0.24 0.24 0.21 0.26 0.25 0.29 0.28 0.27 0.28 0.29 0.30 0.29 0.30 0.31 0.31 0.31 0.32 0.31 0.30 0.30 0.24 0.24 0.23 0.22 0.22 0.18 0.19 0.21 0.24 0.25 0.23 0.19 0.17 0.18 0.17 0.19 0.23 0.24 0.24 0.24 0.25 0.26 0.28 0.28 0.28 0.27 0.27 0.27 0.26 0.25 0.27 0.28 0.27 0.27 0.26 0.26 0.25 0.24 0.24 0.24 0.24 0.24 0.23 0.23 0.23
0.33 0.33 0.32 0.32 0.31 0.31 0.30 0.31 0.31 0.31 0.30 0.26 0.23 0.22 0.22 0.23 0.27 0.31 0.31 0.30 0.33 0.28 0.23 0.20 0.20 0.20 0.19 0.23 0.26 0.31 0.30 0.30 0.30 0.30 0.29 0.31 0.27 0.30 0.28 0.28 0.26 0.29 0.25 0.22 0.23 0.22 0.20 0.21 0.20 0.21 0.21 0.27 0.24 0.21 0.21 0.20 0.19 0.20 0.23 0.24 0.26 0.26 0.27 0.27 0.27 0.28 0.28 0.28 0.28 0.25 0.24 0.26 0.28 0.28 0.27 0.28 0.27 0.26 0.25 0.24 0.24 0.24 0.24 0.24 0.23 0.23 0.23
0.33 0.32 0.32 0.31 0.30 0.30 0.30 0.30 0.29 0.29 0.27 0.29 0.31 0.31 0.31 0.31 0.31 0.31 0.32 0.31 0.31 0.26 0.26 0.21 0.17 0.18 0.18 0.20 0.24 0.29 0.28 0.27 0.26 0.26 0.23 0.29 0.24 0.27 0.22 0.26 0.26 0.24 0.29 0.23 0.20 0.18 0.21 0.21 0.23 0.21 0.25 0.29 0.24 0.23 0.22 0.21 0.23 0.25 0.25 0.26 0.26 0.27 0.27 0.28 0.28 0.28 0.28 0.28 0.28 0.25 0.24 0.26 0.28 0.29 0.27 0.26 0.25 0.24 0.24 0.23 0.23 0.23 0.22 0.21 0.20 0.20 0.21
0.32 0.32 0.31 0.32 0.32 0.31 0.30 0.32 0.33 0.34 0.36 0.31 0.24 0.25 0.28 0.31 0.31 0.32 0.33 0.31 0.24 0.25 0.24 0.19 0.17 0.17 0.18 0.24 0.19 0.25 0.27 0.21 0.21 0.23 0.20 0.25 0.26 0.23 0.21 0.22 0.22 0.19 0.23 0.21 0.22 0.22 0.24 0.24 0.22 0.23 0.26 0.25 0.28 0.24 0.21 0.24 0.27 0.27 0.26 0.26 0.28 0.28 0.28 0.28 0.28 0.28 0.28 0.29 0.30 0.30 0.30 0.31 0.29 0.27 0.25 0.23 0.22 0.23 0.23 0.23 0.23 0.22 0.20 0.20 0.20 0.21 0.22
0.29 0.29 0.30 0.31 0.31 0.32 0.33 0.32 0.31 0.28 0.24 0.26 0.26 0.27 0.30 0.30 0.31 0.31 0.32 0.27 0.21 0.20 0.19 0.20 0.21 0.17 0.16 0.18 0.18 0.22 0.27 0.23 0.20 0.23 0.19 0.22 0.25 0.20 0.21 0.18 0.20 0.17 0.20 0.28 0.24 0.23 0.22 0.23 0.27 0.23 0.21 0.26 0.24 0.22 0.24 0.26 0.27 0.27 0.27 0.27 0.28 0.29 0.28 0.27 0.26 0.28 0.29 0.30 0.30 0.30 0.30 0.28 0.25 0.22 0.21 0.21 0.21 0.21 0.21 0.21 0.22 0.22 0.20 0.20 0.21 0.22 0.23
0.28 0.28 0.28 0.29 0.29 0.30 0.29 0.36 0.27 0.26 0.24 0.22 0.24 0.28 0.30 0.30 0.29 0.29 0.30 0.31 0.25 0.20 0.18 0.19 0.20 0.17 0.17 0.15 0.15 0.20 0.28 0.22 0.24 0.23 0.21 0.22 0.21 0.23 0.22 0.21 0.17 0.23 0.27 0.25 0.22 0.25 0.23 0.28 0.26 0.21 0.26 0.22 0.22 0.24 0.26 0.28 0.28 0.28 0.28 0.28 0.29 0.29 0.28 0.28 0.28 0.28 0.29 0.30 0.30 0.28 0.25 0.23 0.21 0.21 0.21 0.21 0.21 0.21 0.21 0.21 0.21 0.22 0.22 0.21 0.22 0.23 0.24
0.28 0.28 0.28 0.27 0.26 0.27 0.21 0.21 0.25 0.25 0.23 0.26 0.28 0.29 0.28 0.30 0.30 0.29 0.27 0.26 0.28 0.29 0.21 0.20 0.18 0.18 0.19 0.18 0.21 0.24 0.24 0.16 0.22 0.18 0.20 0.19 0.19 0.24 0.23 0.23 0.20 0.26 0.27 0.25 0.26 0.24 0.27 0.31 0.26 0.23 0.23 0.22 0.25 0.29 0.31 0.31 0.30 0.28 0.28 0.30 0.30 0.30 0.30 0.30 0.30 0.29 0.28 0.26 0.24 0.22 0.21 0.21 0.20 0.21 0.20 0.20 0.20 0.21 0.21 0.21 0.21 0.22 0.22 0.22 0.24 0.24 0.25
0.29 0.29 0.26 0.24 0.21 0.19 0.18 0.21 0.21 0.26 0.28 0.27 0.27 0.23 0.24 0.24 0.21 0.22 0.22 0.21 0.24 0.26 0.24 0.23 0.19 0.21 0.23 0.19 0.16 0.23 0.21 0.18 0.22 0.19 0.21 0.25 0.23 0.24 0.27 0.24 0.24 0.26 0.21 0.23 0.25 0.30 0.29 0.27 0.25 0.23 0.24 0.29 0.31 0.32 0.33 0.33 0.32 0.31 0.31 0.31 0.30 0.30 0.30 0.30 0.30 0.27 0.23 0.20 0.18 0.19 0.19 0.18 0.18 0.18 0.19 0.19 0.19 0.20 0.20 0.22 0.22 0.22 0.23 0.23 0.23 0.25 0.25
0.27 0.26 0.25 0.22 0.19 0.18 0.18 0.20 0.29 0.28 0.26 0.27 0.26 0.20 0.18 0.23 0.20 0.18 0.19 0.22 0.22 0.20 0.23 0.21 0.19 0.21 0.19 0.18 0.19 0.25 0.22 0.21 0.21 0.24 0.21 0.29 0.25 0.22 0.27 0.22 0.27 0.26 0.23 0.23 0.25 0.29 0.23 0.24 0.25 0.25 0.24 0.29 0.30 0.32 0.34 0.33 0.31 0.31 0.32 0.32 0.31 0.30 0.29 0.29 0.27 0.24 0.22 0.21 0.21 0.21 0.20 0.19 0.18 0.18 0.18 0.18 0.18 0.19 0.19 0.19 0.19 0.20 0.21 0.22 0.23 0.24 0.25
0.24 0.20 0.18 0.18 0.18 0.19 0.24 0.27 0.27 0.25 0.24 0.19 0.21 0.20 0.18 0.21 0.18 0.17 0.22 0.18 0.18 0.19 0.21 0.17 0.20 0.20 0.20 0.19 0.19 0.21 0.31 0.26 0.23 0.23 0.25 0.26 0.33 0.24 0.28 0.26 0.27 0.24 0.21 0.21 0.24 0.28 0.23 0.21 0.24 0.24 0.25 0.29 0.30 0.33 0.32 0.30 0.29 0.30 0.30 0.30 0.29 0.28 0.27 0.25 0.24 0.24 0.23 0.21 0.21 0.21 0.21 0.21 0.21 0.20 0.20 0.20 0.19 0.18 0.18 0.19 0.19 0.20 0.20 0.20 0.21 0.22 0.23
0.19 0.19 0.19 0.15 0.17 0.21 0.22 0.25 0.26 0.24 0.20 0.19 0.19 0.20 0.19 0.17 0.20 0.20 0.18 0.16 0.15 0.16 0.21 0.20 0.22 0.21 0.24 0.25 0.26 0.24 0.32 0.33 0.32 0.32 0.30 0.26 0.34 0.31 0.26 0.23 0.28 0.23 0.22 0.21 0.26 0.26 0.25 0.24 0.24 0.23 0.25 0.30 0.30 0.29 0.28 0.28 0.27 0.28 0.28 0.27 0.25 0.23 0.22 0.21 0.21 0.21 0.21 0.19 0.19 0.19 0.20 0.20 0.20 0.20 0.21 0.21 0.21 0.21 0.21 0.21 0.22 0.22 0.22 0.21 0.21 0.21 0.22
0.18 0.17 0.18 0.21 0.22 0.21 0.22 0.21 0.21 0.18 0.19 0.20 0.16 0.15 0.17 0.17 0.20 0.20 0.18 0.14 0.15 0.19 0.22 0.23 0.21 0.23 0.24 0.27 0.27 0.29 0.30 0.35 0.32 0.31 0.29 0.25 0.30 0.27 0.25 0.26 0.27 0.23 0.21 0.25 0.28 0.27 0.25 0.22 0.22 0.23 0.28 0.29 0.27 0.27 0.26 0.24 0.25 0.24 0.22 0.20 0.20 0.20 0.20 0.20 0.20 0.19 0.20 0.20 0.20 0.20 0.21 0.21 0.21 0.21 0.21 0.22 0.22 0.23 0.23 0.23 0.23 0.23 0.23 0.23 0.23 0.23 0.23
0.21 0.20 0.19 0.17 0.16 0.17 0.19 0.15 0.19 0.18 0.14 0.15 0.14 0.13 0.17 0.15 0.17 0.17 0.18 0.23 0.25 0.23 0.23 0.29 0.27 0.31 0.31 0.32 0.29 0.32 0.30 0.36 0.30 0.29 0.28 0.26 0.30 0.29 0.25 0.25 0.24 0.21 0.24 0.29 0.27 0.24 0.21 0.21 0.21 0.25 0.28 0.26 0.25 0.24 0.22 0.20 0.19 0.19 0.18 0.18 0.19 0.21 0.22 0.21 0.20 0.20 0.20 0.21 0.21 0.22 0.22 0.22 0.22 0.22 0.23 0.24 0.24 0.23 0.23 0.23 0.23 0.24 0.24 0.24 0.23 0.23 0.23
0.19 0.17 0.15 0.16 0.15 0.18 0.17 0.12 0.21 0.16 0.16 0.17 0.15 0.13 0.16 0.15 0.18 0.20 0.18 0.21 0.24 0.23 0.26 0.23 0.25 0.25 0.23 0.31 0.28 0.29 0.31 0.34 0.35 0.31 0.29 0.30 0.28 0.26 0.25 0.23 0.23 0.27 0.29 0.25 0.23 0.20 0.21 0.23 0.25 0.26 0.26 0.24 0.21 0.18 0.17 0.17 0.18 0.18 0.18 0.19 0.21 0.23 0.22 0.21 0.20 0.19 0.20 0.21 0.22 0.23 0.23 0.23 0.23 0.23 0.23 0.23 0.23 0.22 0.22 0.23 0.24 0.24 0.25 0.24 0.24 0.24 0.24
0.14 0.14 0.14 0.13 0.12 0.16 0.14 0.12 0.19 0.16 0.13 0.16 0.19 0.17 0.17 0.15 0.18 0.20 0.19 0.25 0.24 0.23 0.27 0.27 0.28 0.28 0.27 0.31 0.32 0.33 0.33 0.29 0.35 0.29 0.26 0.28 0.26 0.26 0.24 0.23 0.26 0.26 0.22 0.20 0.20 0.21 0.21 0.22 0.26 0.25 0.21 0.18 0.17 0.16 0.17 0.17 0.18 0.18 0.19 0.20 0.21 0.21 0.20 0.20 0.20 0.21 0.21 0.22 0.22 0.23 0.22 0.22 0.22 0.21 0.21 0.22 0.22 0.23 0.23 0.22 0.23 0.23 0.23 0.23 0.23 0.23 0.24
0.12 0.12 0.11 0.09 0.09 0.15 0.13 0.12 0.15 0.14 0.17 0.19 0.17 0.19 0.19 0.21 0.21 0.21 0.25 0.27 0.25 0.26 0.27 0.29 0.31 0.31 0.30 0.34 0.31 0.30 0.32 0.32 0.29 0.29 0.29 0.28 0.24 0.22 0.26 0.27 0.25 0.20 0.19 0.19 0.18 0.18 0.19 0.22 0.22 0.19 0.18 0.16 0.15 0.16 0.17 0.17 0.19 0.20 0.20 0.20 0.20 0.20 0.21 0.21 0.21 0.21 0.22 0.22 0.23 0.23 0.22 0.22 0.21 0.20 0.21 0.22 0.22 0.23 0.23 0.23 0.23 0.22 0.22 0.22 0.22 0.23 0.24
0.15 0.16 0.14 0.13 0.11 0.14 0.17 0.13 0.14 0.16 0.17 0.19 0.21 0.22 0.22 0.23 0.24 0.25 0.28 0.29 0.29 0.32 0.34 0.35 0.34 0.34 0.33 0.33 0.33 0.33 0.33 0.32 0.28 0.29 0.28 0.23 0.22 0.24 0.26 0.21 0.18 0.18 0.16 0.16 0.17 0.18 0.19 0.19 0.19 0.17 0.16 0.14 0.14 0.15 0.16 0.18 0.20 0.20 0.21 0.22 0.22 0.22 0.22 0.21 0.21 0.21 0.22 0.23 0.23 0.22 0.22 0.21 0.20 0.21 0.22 0.21 0.21 0.22 0.22 0.22 0.21 0.20 0.21 0.22 0.23 0.23 0.24
0.12 0.16 0.16 0.10 0.10 0.13 0.13 0.15 0.19 0.20 0.22 0.22 0.24 0.25 0.26 0.27 0.27 0.27 0.32 0.35 0.36 0.37 0.36 0.36 0.34 0.35 0.34 0.36 0.34 0.29 0.28 0.28 0.25 0.24 0.25 0.22 0.23 0.20 0.19 0.18 0.17 0.18 0.18 0.17 0.17 0.19 0.18 0.18 0.16 0.15 0.14 0.14 0.15 0.16 0.18 0.19 0.20 0.21 0.23 0.23 0.23 0.23 0.23 0.22 0.22 0.22 0.23 0.23 0.22 0.23 0.22 0.20 0.20 0.20 0.21 0.20 0.20 0.21 0.21 0.21 0.20 0.21 0.22 0.23 0.23 0.24 0.25
0.16 0.15 0.12 0.12 0.14 0.15 0.16 0.19 0.20 0.19 0.23 0.26 0.27 0.27 0.28 0.28 0.30 0.34 0.37 0.39 0.38 0.37 0.38 0.35 0.33 0.32 0.28 0.29 0.26 0.24 0.23 0.25 0.21 0.21 0.23 0.21 0.18 0.16 0.16 0.14 0.14 0.14 0.18 0.20 0.19 0.18 0.17 0.16 0.15 0.13 0.13 0.15 0.17 0.18 0.20 0.21 0.23 0.23 0.24 0.24 0.24 0.25 0.24 0.23 0.23 0.24 0.24 0.24 0.23 0.22 0.21 0.19 0.19 0.19 0.19 0.19 0.19 0.20 0.21 0.22 0.21 0.22 0.23 0.23 0.23 0.24 0.24
0.14 0.13 0.17 0.15 0.15 0.19 0.22 0.23 0.24 0.23 0.26 0.27 0.29 0.29 0.33 0.34 0.36 0.38 0.41 0.39 0.39 0.37 0.35 0.33 0.32 0.27 0.24 0.24 0.21 0.21 0.21 0.22 0.21 0.21 0.19 0.17 0.17 0.17 0.16 0.13 0.15 0.15 0.17 0.19 0.18 0.17 0.16 0.15 0.13 0.13 0.15 0.17 0.19 0.21 0.22 0.23 0.24 0.25 0.25 0.26 0.25 0.25 0.24 0.23 0.24 0.25 0.25 0.24 0.23 0.21 0.19 0.18 0.18 0.18 0.18 0.19 0.20 0.22 0.22 0.21 0.22 0.23 0.24 0.24 0.23 0.23 0.21
0.19 0.18 0.18 0.23 0.20 0.20 0.23 0.21 0.22 0.23 0.26 0.29 0.32 0.34 0.36 0.36 0.37 0.37 0.40 0.36 0.34 0.30 0.27 0.23 0.23 0.22 0.21 0.20 0.19 0.17 0.18 0.22 0.20 0.18 0.17 0.16 0.18 0.16 0.15 0.14 0.16 0.19 0.19 0.19 0.18 0.17 0.15 0.14 0.15 0.17 0.18 0.20 0.21 0.22 0.23 0.24 0.25 0.26 0.26 0.25 0.25 0.24 0.24 0.24 0.25 0.26 0.24 0.23 0.22 0.20 0.18 0.17 0.18 0.18 0.19 0.21 0.22 0.22 0.21 0.20 0.21 0.23 0.25 0.25 0.23 0.21 0.20
0.18 0.17 0.19 0.24 0.28 0.28 0.29 0.30 0.32 0.32 0.34 0.36 0.36 0.38 0.38 0.36 0.36 0.34 0.34 0.30 0.26 0.22 0.20 0.22 0.20 0.19 0.18 0.17 0.18 0.20 0.22 0.19 0.17 0.17 0.15 0.17 0.19 0.16 0.16 0.18 0.19 0.19 0.18 0.17 0.16 0.15 0.14 0.17 0.19 0.20 0.21 0.21 0.22 0.23 0.24 0.25 0.26 0.26 0.24 0.24 0.24 0.23 0.23 0.24 0.25 0.24 0.23 0.21 0.19 0.18 0.17 0.18 0.18 0.19 0.20 0.21 0.21 0.20 0.19 0.19 0.22 0.24 0.24 0.23 0.21 0.20 0.19
Wind_Speed
8 7 7 6 6 6 5 4 3 3 2 2 3 3 3 3 3 3 2 3 4 2 2 3 2 3 4 4 4 4 4 5 5 6 6 7 7 8 8 9 9 9 10 10 10 11 12 12 12 12 13 13 14 15 15 15 16 16 16 16 17 17 17 17 20 21 20 20 21 21 21 22 22 23 23 22 23 22 21 22 23 24 23 22 22 24 28
8 8 7 6 6 5 4 3 3 2 2 2 2 2 3 3 3 3 2 3 3 3 3 4 3 4 4 4 4 5 5 5 5 6 7 7 8 8 9 9 10 10 10 10 11 12 12 12 12 13 13 14 14 15 15 15 15 16 16 16 17 17 17 18 20 22 21 21 22 22 23 23 23 24 24 23 23 22 22 23 23 24 23 21 20 24 30
8 8 7 6 5 5 4 3 3 2 2 2 2 2 2 2 3 3 2 2 3 3 4 4 4 4 4 4 5 5 5 6 6 6 7 8 8 8 9 10 10 10 11 11 12 12 12 13 13 13 14 14 15 15 16 16 16 16 17 17 17 17 18 18 18 19 20 22 23 23 24 24 24 25 24 24 22 21 22 23 22 24 24 21 20 26 33
8 7 6 5 5 4 3 3 2 2 1 1 2 2 2 2 2 3 3 3 2 3 4 3 3 4 4 4 5 5 6 7 7 7 8 8 8 9 9 10 10 11 11 11 12 13 13 13 13 14 14 15 16 15 16 16 16 16 17 17 17 18 19 19 18 19 20 22 24 24 25 25 26 26 24 24 23 21 21 21 22 23 24 23 25 29 35
7 6 5 5 5 4 4 3 2 1 1 1 1 1 1 2 3 3 3 4 3 3 4 3 4 5 5 5 6 6 7 8 8 8 9 9 9 10 10 10 10 11 11 12 13 13 13 14 14 15 15 16 16 16 16 17 17 17 18 18 18 18 21 21 20 21 22 24 26 26 25 26 27 27 25 23 23 22 21 21 23 24 24 27 29 29 32
6 5 5 5 5 4 4 2 1 1 1 1 1 1 2 2 3 3 3 4 4 4 5 4 4 5 5 6 7 7 7 8 8 9 10 10 10 10 11 12 12 12 12 12 13 14 14 15 15 15 15 16 17 17 18 18 18 18 18 19 18 19 21 22 21 22 24 24 27 27 25 26 26 27 26 25 22 21 21 23 24 23 24 29 32 31 32
5 5 5 5 5 4 3 2 1 1 2 2 2 2 2 2 2 3 3 4 4 5 5 5 4 5 6 7 8 7 8 10 10 10 10 11 12 11 12 14 14 13 13 13 13 15 15 16 17 16 16 17 17 18 19 19 19 19 19 20 20 20 22 22 22 24 25 24 25 26 25 26 27 27 26 24 22 21 22 25 25 25 28 31 34 35 35
5 5 5 5 5 4 3 2 2 2 2 2 2 2 3 2 3 3 3 4 4 5 5 5 5 6 7 8 9 9 9 10 11 10 10 11 13 12 13 15 14 14 13 13 14 16 15 16 17 16 16 18 18 18 19 18 19 20 20 21 21 21 23 23 22 25 26 24 24 25 24 26 28 28 25 22 22 22 23 25 25 26 29 32 32 34 36
5 5 5 4 4 3 3 3 3 3 3 2 2 3 3 3 4 4 3 4 5 5 6 5 6 8 8 9 10 10 10 11 11 11 12 12 12 12 13 14 14 14 14 15 16 17 16 16 18 17 17 19 19 19 19 18 18 20 21 21 21 21 23 24 23 25 26 24 25 27 27 28 28 27 25 23 22 23 23 24 24 24 28 30 31 32 34
5 4 4 4 3 3 3 3 4 3 3 3 3 3 4 4 5 5 4 5 6 6 7 7 7 8 9 9 10 11 12 12 11 12 13 13 13 13 14 13 14 15 16 17 17 17 17 17 18 18 18 19 19 19 19 18 18 19 20 21 22 21 22 24 23 25 26 26 27 29 30 27 25 24 24 23 22 23 24 24 24 24 26 28 29 31 33
4 4 3 3 3 4 4 4 4 4 4 4 4 4 5 5 5 5 5 6 7 7 7 8 9 9 10 10 10 11 12 12 11 13 14 14 14 14 14 14 14 16 17 17 17 17 18 18 18 18 18 19 19 19 19 19 19 19 19 21 22 21 22 23 23 24 27 28 28 29 26 23 23 24 22 21 22 23 24 25 26 25 26 27 30 32 34
3 3 3 3 3 4 4 4 5 5 5 5 5 5 6 6 6 6 5 7 8 8 8 10 10 10 10 10 11 12 12 12 13 14 14 14 15 15 15 15 15 16 17 17 17 18 18 19 19 19 19 19 20 20 20 20 20 20 19 20 21 21 22 23 24 24 27 28 27 25 22 21 25 26 22 21 23 23 25 28 27 26 27 29 31 33 36
2 2 2 3 3 4 4 4 5 5 6 6 6 6 7 7 7 7 6 7 9 9 9 10 11 11 11 11 11 12 13 13 14 14 14 14 15 15 16 16 16 17 17 17 18 18 19 19 20 19 20 20 21 21 20 20 21 20 20 20 20 21 21 23 23 24 25 25 22 22 24 27 28 25 22 23 24 25 27 30 29 27 27 28 30 34 36
2 2 3 4 4 4 5 5 6 6 6 7 7 7 8 8 7 8 8 8 10 10 9 11 12 12 12 12 11 13 14 14 15 15 15 15 15 16 17 17 17 18 18 18 18 19 19 20 21 21 21 21 21 21 20 20 21 21 21 21 21 20 21 22 23 22 23 23 23 24 28 30 27 24 23 24 25 25 27 30 30 27 25 28 31 35 36
3 3 4 5 5 5 6 6 6 6 6 7 7 7 8 8 8 8 9 9 10 11 11 11 12 12 12 13 12 13 14 15 16 16 16 16 16 17 18 18 18 19 19 18 19 20 20 20 21 22 22 21 21 21 21 21 21 21 22 22 20 20 21 21 21 22 22 23 25 26 25 25 25 25 26 26 26 26 27 30 32 29 27 30 32 34 36
3 4 4 5 5 5 6 6 6 6 6 7 7 8 9 9 9 9 9 9 10 12 12 12 12 12 12 13 14 14 15 16 16 17 18 18 18 18 18 18 19 19 19 19 20 20 20 21 21 21 22 21 21 22 21 21 22 21 22 22 21 21 22 21 21 23 23 22 23 23 23 25 26 26 26 26 27 27 28 31 32 31 31 32 32 33 35
3 4 4 4 4 5 5 5 6 6 6 7 8 8 9 10 10 10 10 11 12 13 14 14 14 13 13 15 16 16 16 16 16 17 18 18 18 19 19 19 19 19 19 20 21 20 20 21 21 21 22 21 21 21 22 21 21 22 22 21 21 22 22 22 22 24 23 22 23 23 24 27 27 25 25 27 28 28 29 31 32 33 33 33 33 34 36
3 3 3 3 4 4 5 5 5 6 7 7 8 9 10 10 11 11 12 12 13 14 15 15 15 15 16 16 17 17 17 17 17 17 18 18 19 19 19 19 19 20 20 20 20 20 20 21 21 20 21 21 20 20 21 20 21 22 21 21 21 22 22 22 22 23 23 22 24 26 26 27 26 25 25 26 28 29 29 31 34 35 35 35 35 36 37
3 3 3 3 4 4 5 5 6 7 7 8 8 10 11 12 12 13 13 14 15 15 16 17 17 17 18 18 18 18 18 18 18 17 17 18 19 17 17 18 19 19 19 19 19 19 20 20 20 19 20 21 20 20 20 21 21 21 21 21 22 22 22 22 22 23 23 22 24 26 27 26 24 24 26 26 28 30 31 33 36 37 39 39 38 38 39
3 3 4 4 4 5 5 6 7 7 8 9 10 11 12 13 13 14 14 14 15 16 17 17 17 17 18 18 18 18 18 18 17 17 17 17 17 16 17 18 18 18 18 18 19 19 19 20 20 19 19 21 20 20 21 22 22 20 20 21 22 21 21 22 22 22 22 22 22 24 26 26 23 23 27 27 28 31 35 37 38 40 41 42 40 40 41
4 4 5 5 5 6 6 7 7 8 9 10 10 11 12 13 14 14 14 15 15 15 16 17 17 16 17 17 17 17 17 17 17 17 16 16 16 15 17 18 17 17 18 18 18 19 19 19 20 20 19 20 21 20 21 23 23 22 20 21 22 21 21 22 23 22 21 22 22 22 24 24 22 24 27 29 30 35 38 39 40 42 43 42 42 43 43
5 6 6 6 6 6 7 7 8 8 9 10 11 11 12 13 13 13 14 14 14 14 14 15 15 15 15 15 16 16 16 16 16 16 15 15 15 15 16 16 16 16 17 17 17 19 19 19 19 20 20 20 21 21 21 22 23 23 20 20 21 21 21 22 24 24 23 23 25 25 26 26 26 27 31 33 36 39 40 41 42 43 44 44 44 45 46
6 6 6 7 6 7 7 8 8 8 9 11 11 11 11 12 12 13 13 13 13 13 13 13 13 13 13 14 14 14 13 13 14 14 14 13 13 14 15 15 15 16 16 16 17 17 18 18 18 19 20 20 20 20 21 21 22 22 21 21 23 23 23 23 24 25 25 26 26 27 28 29 30 31 33 36 39 41 42 43 44 45 46 46 46 47 49
7 7 7 7 7 7 8 8 8 9 10 11 11 11 11 12 12 13 13 12 12 12 12 12 12 12 12 12 12 12 12 12 12 12 12 12 13 13 14 15 15 15 16 16 17 17 17 18 18 18 19 19 19 19 21 21 21 21 21 23 24 23 23 23 24 25 26 26 25 27 30 32 33 34 36 38 40 41 42 43 45 46 48 48 48 49 50
8 8 8 8 8 8 8 9 9 10 11 11 11 12 12 12 13 12 12 11 11 10 9 10 11 10 10 11 11 11 11 11 12 12 12 13 13 14 14 15 15 15 16 16 17 17 17 18 18 18 18 19 18 19 19 20 20 21 21 22 23 23 23 23 23 24 25 26 28 31 33 33 34 35 37 39 41 43 44 45 46 47 48 48 48 49 49
8 8 8 8 8 8 9 9 10 11 11 12 12 12 12 12 12 11 10 10 9 8 9 9 10 10 10 10 10 11 11 12 12 12 13 13 14 14 15 15 15 16 16 16 16 16 16 17 17 17 17 18 18 18 19 20 21 21 21 21 22 22 23 23 24 25 26 27 29 33 34 34 34 37 40 42 44 46 47 47 47 48 48 49 49 49 48
9 9 8 8 8 9 9 10 10 11 11 12 12 12 12 11 10 10 9 9 9 9 9 9 10 10 9 9 10 11 11 12 12 12 13 13 14 14 14 15 15 16 16 16 16 16 16 16 17 17 17 18 18 18 18 19 20 19 20 21 21 22 23 24 25 27 27 28 31 34 35 35 38 41 43 45 46 48 48 48 48 48 49 49 50 50 49
9 9 9 9 9 9 10 10 10 11 11 11 11 11 11 11 10 10 9 9 9 9 9 8 9 9 9 9 10 11 11 12 12 12 13 13 13 14 14 14 15 15 15 15 15 16 16 16 17 17 18 18 19 19 19 19 18 19 20 21 21 22 23 25 26 28 30 32 35 37 36 38 41 44 46 47 47 48 49 49 49 49 50 50 50 51 51
10 10 9 9 10 10 10 10 10 11 11 10 10 10 10 10 11 11 11 10 10 9 9 8 9 9 9 9 10 11 11 12 12 12 13 13 14 14 14 15 15 15 15 15 16 16 16 17 18 18 18 18 18 19 19 18 18 19 20 22 22 24 25 26 28 30 32 35 37 38 38 41 44 46 47 47 47 48 49 50 50 50 50 50 50 51 51
10 11 10 10 10 10 10 10 11 11 10 10 9 10 10 10 11 11 11 11 10 10 9 9 9 9 10 10 10 11 11 12 13 13 14 14 14 15 15 16 16 16 17 17 16 17 18 18 18 19 19 18 18 19 19 18 18 19 21 24 26 27 28 29 31 32 34 36 39 39 40 43 45 46 46 47 47 48 49 49 50 50 51 51 51 51 52
11 11 11 11 11 11 10 10 10 10 9 9 9 9 9 9 11 12 12 11 10 10 10 10 10 10 10 10 11 11 12 13 13 14 15 15 16 16 16 16 17 17 17 17 17 18 18 19 19 19 19 19 19 18 18 18 19 20 23 26 28 29 30 32 33 34 35 38 41 42 42 42 44 46 48 49 49 49 49 50 51 52 52 52 52 52 52
10 11 11 12 12 11 11 10 9 9 9 9 9 9 9 10 11 11 11 11 10 11 10 10 10 10 11 11 12 12 13 14 15 15 16 16 17 17 17 17 18 18 18 18 18 18 19 19 19 19 19 19 19 18 18 18 20 23 26 29 30 31 32 34 35 36 37 39 42 44 45 45 46 48 50 51 51 51 51 52 53 54 54 54 54 54 54
11 11 11 11 11 11 10 9 9 9 9 9 9 10 10 11 11 12 11 11 10 11 10 10 10 11 11 12 13 14 14 15 16 17 18 18 17 18 18 18 18 19 18 18 18 19 19 19 19 20 20 20 19 18 18 19 22 26 29 31 33 34 35 36 37 38 39 41 42 44 46 49 50 50 51 51 51 52 53 54 55 56 56 56 57 57 58
11 11 11 11 11 11 10 10 9 9 10 10 10 11 11 11 11 12 12 11 11 11 11 11 11 12 13 14 14 15 16 17 18 18 18 18 18 18 19 19 19 19 19 18 19 20 20 20 20 20 20 20 19 19 20 22 26 29 31 33 35 36 37 38 38 40 42 43 44 44 46 49 51 51 51 52 53 54 55 56 57 58 59 59 60 60 61
12 12 11 11 11 11 10 10 10 10 10 10 11 11 11 12 12 12 12 12 11 12 12 12 12 13 14 15 16 16 17 18 18 18 18 19 19 19 19 19 19 19 19 19 20 20 20 20 20 20 20 20 19 19 22 25 28 31 33 35 37 38 40 41 42 43 45 45 46 47 49 50 51 52 53 54 55 57 58 59 59 60 61 62 63 63 63
12 12 12 12 11 11 10 10 11 11 11 11 11 12 12 13 12 12 12 12 12 12 12 13 13 13 15 16 17 17 19 19 19 19 19 19 20 20 20 19 19 19 19 20 20 21 21 20 20 20 20 20 19 21 24 28 31 33 35 37 38 40 42 43 45 46 47 48 49 50 51 52 53 54 55 57 58 59 60 62 62 63 64 65 65 66 66
13 13 12 12 12 11 11 11 11 12 12 12 13 13 13 12 12 12 12 12 13 13 13 13 14 15 16 16 18 19 20 20 20 20 20 20 20 21 20 20 20 21 21 21 21 21 21 21 20 20 20 20 22 24 27 30 33 35 37 39 40 41 43 44 46 49 51 51 52 52 53 54 55 56 58 59 61 62 63 64 64 65 66 67 68 68 68
14 13 13 12 12 11 11 12 12 13 13 13 13 12 12 12 12 12 12 13 13 14 14 14 15 16 17 18 19 20 20 20 21 21 21 21 21 21 21 21 22 22 22 23 22 21 21 21 21 21 22 23 25 26 29 31 34 36 38 40 41 43 44 46 48 50 52 53 55 56 57 59 60 61 62 63 64 65 65 66 66 67 67 68 69 70 70
14 14 14 13 12 12 12 13 13 13 13 13 12 11 11 12 12 12 13 13 14 15 16 16 16 17 18 19 20 21 21 21 21 21 22 22 23 23 23 23 23 23 24 24 23 22 23 23 23 23 24 25 26 28 30 33 36 38 39 41 43 44 46 47 48 50 51 52 54 56 57 59 61 63 64 65 67 67 68 68 69 69 70 70 71 71 71
15 15 14 14 13 13 13 14 14 13 12 12 11 11 11 12 12 12 14 14 15 15 16 17 17 18 19 19 20 21 21 22 22 22 23 23 23 24 24 24 25 25 24 24 24 24 24 25 25 24 24 26 28 31 34 36 38 40 41 43 45 46 47 48 49 51 52 54 55 57 58 60 61 63 64 66 67 68 69 69 70 71 72 72 73 73 73
15 15 14 14 14 14 14 14 13 12 11 11 11 11 11 12 13 14 14 15 16 16 17 18 18 19 20 20 20 21 22 23 23 23 23 24 24 24 24 25 25 25 24 24 25 25 26 26 25 24 25 28 31 34 37 39 41 42 44 46 47 49 50 51 53 54 56 57 59 60 61 63 64 65 65 66 67 68 68 69 70 72 73 74 75 75 75
15 15 15 15 14 14 13 13 12 12 11 11 11 12 12 13 14 15 15 16 16 17 18 19 19 20 21 22 22 23 24 24 25 24 25 25 26 25 25 26 25 24 24 25 27 27 26 26 25 26 28 31 35 38 41 43 44 46 47 49 50 52 53 55 57 58 59 60 61 63 64 65 66 66 67 68 68 69 70 71 72 73 74 74 75 76 76
15 15 15 14 14 13 13 12 12 12 11 11 12 12 13 14 14 15 16 17 17 18 19 20 21 22 23 23 24 24 25 25 25 25 25 26 26 26 26 26 25 25 26 27 27 26 26 26 26 28 31 35 38 42 45 47 48 50 51 52 53 55 56 58 59 61 62 63 64 65 66 66 67 68 69 70 70 71 71 73 73 73 74 74 74 74 73
15 15 14 13 13 13 12 12 12 12 12 12 12 13 14 15 16 16 18 19 19 20 21 22 23 24 24 25 25 25 25 26 26 26 26 26 27 26 26 26 26 27 28 27 27 26 26 27 28 31 36 40 44 46 49 50 51 53 54 55 56 57 59 60 62 63 64 65 66 66 67 67 68 69 69 70 71 71 72 73 73 72 72 72 72 71 70
15 15 14 13 13 13 12 12 12 12 12 13 13 13 14 16 17 18 19 20 21 22 24 24 24 25 26 26 26 26 26 26 26 26 26 27 27 26 26 26 27 28 27 27 27 27 28 29 32 36 42 46 49 50 51 52 53 55 56 58 59 60 61 63 64 65 66 67 67 67 68 68 69 69 69 70 70 70 70 70 70 70 70 70 69 68 67
14 14 14 13 13 13 13 12 13 13 13 14 14 15 16 18 19 20 21 22 23 24 26 26 26 26 26 27 26 26 26 27 26 26 26 26 26 26 27 27 27 27 27 28 29 29 30 33 37 42 47 50 52 53 53 54 55 57 58 59 61 62 64 66 66 67 67 68 68 68 68 68 68 69 69 69 68 67 66 66 67 68 68 68 67 66 66
14 14 14 13 13 14 14 13 14 14 15 15 16 17 18 20 21 22 23 24 25 26 27 27 26 26 26 26 26 26 26 26 26 26 26 26 27 28 28 27 27 27 28 29 31 32 34 38 43 47 50 52 54 55 56 57 58 59 60 61 62 64 66 68 68 68 68 68 68 67 67 67 68 67 66 65 65 64 64 65 67 68 67 66 65 65 65
14 14 14 13 13 14 14 15 15 15 16 17 18 19 21 22 22 23 25 25 26 27 27 27 26 26 26 26 25 25 26 26 26 26 26 27 27 28 28 28 28 29 29 30 33 36 39 43 48 51 53 54 55 57 58 59 60 61 62 63 65 67 68 69 69 68 68 67 66 65 65 65 65 64 63 63 64 64 64 66 68 68 65 64 64 64 63
14 14 14 14 14 14 15 16 16 16 18 19 21 22 22 23 24 25 26 26 26 27 26 26 25 25 25 25 25 25 25 26 26 27 27 27 27 27 28 29 30 31 32 33 36 40 44 48 52 54 55 56 57 58 59 60 62 63 64 65 67 68 69 69 68 67 66 64 62 61 62 62 62 62 63 64 64 64 65 67 67 66 64 63 63 62 62
15 15 15 15 16 17 18 18 18 19 21 22 23 23 23 24 25 26 26 26 26 26 25 25 24 25 25 25 25 25 26 27 27 27 27 27 27 28 29 30 32 33 35 38 41 44 49 52 55 56 57 59 59 60 61 62 63 65 66 67 68 68 68 67 66 64 61 59 59 59 61 61 62 62 63 64 64 65 66 67 67 65 63 61 60 61 64
16 16 16 17 18 19 20 20 20 21 22 23 23 24 24 25 25 25 25 25 25 25 24 24 25 25 26 26 26 26 27 27 27 27 28 28 28 29 31 33 34 37 40 43 46 49 52 54 56 57 59 60 61 62 63 65 66 66 67 67 67 66 65 64 61 59 57 57 58 60 61 62 62 63 64 64 64 64 65 66 66 64 61 59 60 63 65
17 17 18 19 20 21 21 21 21 21 22 23 23 24 24 24 24 25 25 25 24 24 24 25 25 25 26 26 27 27 27 27 27 28 29 29 29 31 33 36 38 41 44 47 50 53 55 56 57 58 60 61 63 65 66 66 66 67 66 65 64 63 61 59 56 55 56 58 59 61 62 63 63 64 65 64 62 62 64 65 64 62 61 61 62 64 65
Wind_Direction
172 169 166 164 161 161 162 163 167 174 183 189 189 190 190 187 200 222 231 208 197 192 222 249 256 243 246 254 260 267 270 272 277 281 287 289 290 295 296 295 298 298 297 300 300 302 303 302 303 303 303 305 306 308 311 311 312 315 314 313 316 318 319 318 316 318 321 322 324 327 330 331 328 326 328 328 327 327 327 324 325 327 325 326 329 325 328
169 166 164 163 163 164 163 163 170 175 176 180 181 187 194 197 206 218 225 212 204 210 228 235 245 252 256 266 272 276 279 279 281 283 287 290 291 294 295 295 298 298 300 303 301 301 305 305 306 306 305 306 307 308 311 311 312 313 312 312 315 315 316 318 320 322 324 326 327 327 328 328 325 324 326 327 328 330 328 326 327 326 322 325 328 322 325
165 165 165 167 168 168 167 170 176 172 170 178 182 194 204 204 213 226 243 237 222 229 231 221 230 248 257 268 271 276 285 284 282 285 288 289 291 293 295 296 298 300 304 306 304 304 305 305 307 309 308 307 308 308 310 310 311 311 311 313 314 312 313 316 319 320 320 321 323 323 324 324 323 324 324 325 327 326 325 326 327 323 321 324 323 319 323
166 168 170 174 174 172 174 174 170 166 173 189 195 208 216 214 226 243 266 270 247 247 251 237 238 247 252 271 274 274 285 287 284 288 291 291 292 295 296 298 301 304 305 304 303 303 306 307 307 307 306 307 308 308 309 310 310 310 311 313 313 313 312 311 311 310 311 314 316 320 324 322 320 321 321 321 321 321 323 325 320 318 321 321 316 316 320
170 174 176 180 179 177 177 174 171 181 204 218 219 238 239 227 234 246 264 273 267 271 274 264 260 257 256 273 277 272 282 289 289 290 290 290 292 296 298 298 299 299 300 301 300 301 305 307 305 304 304 306 308 308 308 309 309 309 310 311 312 313 311 309 307 306 308 311 314 317 320 318 316 317 317 317 318 318 318 314 313 320 323 319 318 320 320
176 180 182 183 181 180 181 182 199 226 246 253 242 258 262 245 246 252 259 264 263 274 279 272 270 272 273 281 282 278 282 286 286 288 292 293 292 295 298 296 293 292 295 300 300 300 303 303 302 305 305 306 309 310 308 308 308 309 311 311 311 311 308 307 309 308 308 311 312 313 315 315 315 315 314 315 315 313 308 307 311 317 315 313 318 322 319
182 183 184 184 181 183 191 208 247 261 270 272 255 255 266 263 265 269 273 269 262 269 277 274 274 280 285 287 284 278 277 280 282 287 294 297 293 292 295 294 291 290 294 300 300 298 301 302 302 303 304 304 307 308 307 308 308 309 311 310 310 310 308 307 309 310 310 310 310 311 314 316 316 313 312 312 311 307 306 308 311 312 308 310 315 317 318
184 184 185 185 185 194 213 237 265 276 279 276 262 259 267 271 271 273 284 289 280 280 283 281 283 289 291 290 285 280 276 278 284 288 289 292 294 292 291 292 292 292 294 298 298 295 296 299 300 301 304 305 304 304 305 307 308 309 309 308 309 308 307 308 311 312 312 313 314 315 315 316 315 314 313 312 310 309 310 312 315 314 311 313 316 316 319
183 184 185 189 194 213 235 252 269 277 277 270 265 269 270 272 275 274 284 294 292 289 289 289 291 292 291 287 286 285 280 277 283 290 289 287 289 288 286 290 296 300 299 296 296 296 297 298 298 298 300 302 303 303 305 306 307 306 306 307 308 307 307 311 314 313 311 314 319 319 318 316 314 313 313 312 312 314 315 317 318 316 314 316 319 319 321
182 185 191 202 217 236 250 261 269 270 267 265 268 276 277 281 286 284 286 294 291 287 292 297 295 292 290 288 287 289 287 281 282 292 294 292 291 289 287 291 298 302 299 295 295 298 298 299 300 300 301 304 304 305 304 304 304 304 304 307 307 306 307 310 312 311 310 314 318 319 320 320 317 315 316 316 315 315 316 319 318 315 316 319 320 319 322
190 198 211 225 238 252 260 267 270 266 263 266 272 278 279 283 288 289 293 298 293 290 295 296 293 293 293 293 293 294 293 286 284 290 294 294 295 294 292 294 298 299 297 297 299 301 301 302 303 303 305 306 307 307 306 305 305 303 303 306 306 306 308 308 308 309 309 313 317 319 321 321 318 318 319 318 316 313 313 318 318 317 317 318 318 320 323
204 214 228 241 252 264 270 273 274 268 265 272 279 281 283 286 288 291 294 295 294 295 296 292 290 294 296 295 297 297 293 291 291 293 293 294 296 298 297 296 297 298 299 301 304 305 304 304 305 307 308 308 309 309 308 307 306 304 304 306 306 306 307 306 307 308 309 314 320 321 319 316 316 318 320 319 319 317 315 318 319 318 316 315 316 319 321
213 228 246 261 269 276 279 280 281 275 271 277 283 283 285 288 289 291 295 296 295 293 293 294 294 296 296 296 299 298 295 297 300 299 298 297 296 297 299 298 297 298 299 301 304 306 305 305 306 306 308 309 310 310 309 308 308 307 307 308 307 306 306 306 307 308 310 316 319 316 314 316 319 321 322 323 324 324 321 320 320 319 316 316 317 318 319
244 259 270 276 277 281 283 283 283 280 275 279 284 285 288 290 288 290 295 299 297 292 292 299 298 294 293 294 296 299 299 300 302 302 301 299 296 295 297 297 296 298 299 300 304 306 305 306 308 308 309 310 311 310 310 311 312 312 311 309 308 307 307 308 309 309 310 312 310 311 315 320 321 323 324 323 323 323 321 320 322 323 320 318 320 320 321
279 282 283 284 283 283 284 284 284 282 279 282 286 288 292 292 287 289 294 298 301 298 295 297 297 293 293 293 293 298 301 299 299 301 301 299 297 295 295 295 297 299 300 300 303 305 305 306 307 308 308 309 308 307 309 310 312 314 314 312 311 310 308 307 308 309 311 312 312 316 320 320 319 320 323 323 322 324 324 321 322 324 321 318 320 322 322
290 292 290 290 289 288 288 287 288 285 283 287 291 292 295 294 289 289 295 299 304 302 298 297 299 298 298 297 294 295 298 297 297 300 301 300 298 296 295 295 297 299 300 301 302 304 306 304 304 304 304 305 305 306 308 309 309 313 315 315 315 314 312 311 308 307 310 311 311 314 314 314 317 319 321 322 322 325 326 323 322 324 322 320 322 322 322
301 302 301 300 300 299 299 297 295 293 292 294 297 297 298 297 292 290 295 299 302 302 300 299 299 299 300 301 297 295 296 297 297 299 299 297 296 296 296 296 297 298 300 301 303 305 305 303 303 303 303 304 305 306 307 308 307 310 313 314 315 314 312 311 307 305 307 307 307 309 309 311 316 319 320 322 323 326 327 324 322 325 324 323 323 322 320
316 316 315 316 315 313 313 309 306 306 303 302 304 303 301 300 296 293 295 298 300 300 300 299 298 297 297 298 296 295 296 297 298 299 299 298 296 294 294 295 298 299 299 301 303 304 303 302 303 303 303 305 307 306 306 307 307 307 310 311 311 310 309 307 306 306 307 305 305 308 309 312 316 320 321 322 324 326 325 321 322 324 324 323 322 320 319
348 344 338 333 326 321 320 316 314 313 310 307 308 307 304 302 299 296 297 298 299 299 299 299 298 297 297 297 297 297 296 296 298 299 300 299 296 294 296 297 298 300 302 303 304 303 303 303 304 304 304 306 307 306 305 306 307 309 310 309 308 308 308 308 308 309 309 307 307 309 312 316 322 325 323 322 324 324 321 319 321 322 322 321 321 319 318
5 356 344 336 330 324 320 317 315 314 312 310 309 307 307 305 301 299 298 298 300 301 301 300 299 299 299 299 299 299 298 298 299 298 298 298 295 298 303 302 299 301 304 305 304 304 304 304 304 305 304 305 306 306 306 307 308 308 307 306 306 306 307 308 309 310 311 311 311 313 315 317 324 328 325 323 321 319 318 319 320 320 319 320 319 318 318
3 354 345 338 333 328 325 321 319 317 316 315 313 310 311 310 307 304 302 301 302 304 303 302 302 302 303 302 301 302 301 300 300 298 299 299 296 298 304 303 298 300 303 302 303 305 304 303 305 306 306 306 307 307 307 309 311 311 310 309 308 307 307 308 309 310 311 310 308 311 316 318 319 321 320 317 315 315 316 318 318 318 318 318 317 317 317
360 353 348 342 336 333 331 328 325 322 321 321 320 318 317 315 313 313 312 310 309 308 305 305 306 306 306 305 305 304 303 303 303 302 303 303 299 299 305 306 302 301 303 304 306 307 306 306 306 307 307 307 307 307 308 309 310 312 314 312 309 306 306 309 308 308 308 307 306 310 316 318 315 313 313 312 312 314 315 315 315 315 316 316 315 315 315
1 355 351 348 344 341 339 336 333 330 329 327 326 324 322 319 316 316 316 315 315 314 312 311 312 312 312 312 312 311 309 310 310 309 309 310 306 305 308 309 307 307 308 307 307 308 308 308 308 309 309 308 309 311 311 310 309 311 313 311 309 309 311 311 311 311 311 310 310 312 314 314 313 312 311 312 313 315 316 315 314 314 315 315 315 314 315
8 3 358 355 352 349 346 345 342 338 336 333 330 328 326 323 321 321 320 318 317 319 319 319 319 320 320 321 322 322 322 322 320 318 318 317 316 314 313 311 311 312 312 309 309 311 312 312 312 313 311 310 311 312 312 311 310 313 314 313 313 317 317 314 313 315 316 314 313 314 313 312 313 313 314 314 315 316 316 316 315 315 315 316 315 315 315
9 6 3 0 358 355 352 350 346 343 340 337 335 333 331 328 326 326 326 325 324 325 328 327 327 328 327 327 329 329 330 328 326 325 324 322 320 320 319 317 317 316 314 314 315 316 315 315 315 315 313 313 315 314 313 313 313 315 317 317 317 319 320 317 315 317 315 312 311 311 311 311 313 314 315 317 317 316 317 317 316 317 317 317 316 316 316
6 3 2 1 360 357 354 350 347 344 341 339 338 338 335 333 333 334 336 337 336 339 340 335 331 331 332 332 333 333 333 333 331 329 328 326 323 322 322 322 321 319 318 318 318 317 317 317 318 316 315 316 318 316 315 315 315 317 318 319 319 320 320 319 318 318 317 314 313 314 314 313 315 316 317 318 318 318 319 319 319 318 318 318 318 318 317
4 0 358 356 355 354 352 349 347 347 347 347 349 349 346 345 345 345 346 346 344 343 342 338 335 335 335 335 336 338 338 337 336 334 332 331 329 328 327 327 325 324 324 323 321 321 321 321 320 317 315 316 318 318 317 317 318 319 319 319 321 322 320 320 322 321 320 318 318 319 319 318 318 319 320 320 321 321 320 321 321 321 321 320 320 319 319
0 357 355 352 351 350 348 347 348 351 353 354 357 0 1 2 1 358 355 353 351 348 346 345 343 344 343 340 340 342 342 341 340 339 337 336 335 334 333 333 331 330 329 328 326 325 324 322 320 318 318 320 319 318 319 321 322 321 318 317 319 319 319 321 321 319 317 317 318 319 319 317 318 320 321 322 322 322 322 322 322 321 321 321 321 320 320
359 356 352 351 351 349 345 344 347 351 352 353 356 0 3 6 8 7 3 360 359 359 358 356 351 348 347 344 342 343 343 343 342 342 340 338 337 335 334 334 332 331 330 329 328 326 323 320 320 320 321 321 319 318 320 322 321 317 315 315 316 318 318 318 317 315 315 316 318 319 318 317 318 320 321 322 322 322 321 321 321 321 321 321 321 320 320
1 359 356 354 352 348 344 343 345 348 351 354 356 358 0 2 4 4 3 2 2 2 1 359 354 349 348 348 344 343 344 343 342 341 339 337 335 333 332 332 330 329 330 329 327 325 323 321 322 323 321 320 320 321 321 321 319 315 314 315 318 320 320 319 318 316 316 317 318 319 318 317 318 319 320 321 322 322 321 321 321 321 321 321 321 320 320
1 1 360 358 355 353 350 349 350 353 355 357 358 359 359 357 355 357 360 0 1 1 360 360 357 352 350 349 346 343 343 342 340 338 336 335 334 332 331 331 329 328 328 327 325 325 324 323 324 324 323 322 323 322 322 323 321 317 316 318 320 321 320 320 319 317 317 317 318 317 317 317 318 319 320 320 321 321 320 320 320 320 320 320 319 319 318
357 357 356 356 355 355 356 357 359 360 359 360 1 1 357 352 350 352 354 354 355 355 355 354 353 349 345 344 343 341 340 339 338 337 335 334 333 332 331 330 329 328 327 326 326 326 324 324 325 324 323 323 324 323 323 324 321 317 317 320 321 321 320 319 319 318 318 319 319 319 318 318 320 320 320 320 320 320 320 319 319 319 319 318 318 318 317
350 349 349 349 350 352 354 356 357 357 356 357 359 358 355 353 351 351 350 348 348 348 348 348 346 342 339 339 339 338 338 337 336 335 333 331 331 332 331 331 330 328 326 325 326 326 325 325 326 324 322 322 324 323 322 319 316 316 319 321 321 320 320 319 318 318 319 320 321 320 318 318 319 319 319 319 319 320 319 319 319 318 318 318 318 318 318
345 344 344 344 344 346 346 345 346 345 346 347 347 346 347 348 348 348 348 345 342 342 344 344 341 337 336 336 335 335 336 335 333 332 332 331 331 332 331 330 331 329 327 326 327 327 326 326 326 324 323 323 324 323 318 314 314 316 319 320 320 320 320 319 319 320 320 321 321 319 318 318 318 319 319 319 319 319 319 319 319 318 318 318 317 317 317
342 341 340 339 339 339 339 339 339 338 339 339 339 338 340 340 340 342 343 342 340 338 338 338 338 336 335 334 332 331 333 333 331 330 331 330 331 331 331 331 331 329 328 327 328 327 326 326 325 324 323 323 322 319 316 314 315 318 320 321 321 322 322 321 321 321 321 321 320 319 319 319 319 319 319 319 319 319 319 319 318 318 317 316 316 316 316
342 340 338 336 336 336 335 336 337 336 335 334 332 332 333 333 333 335 337 339 340 337 333 334 336 335 333 331 329 330 332 332 331 330 330 330 331 331 332 332 331 329 328 329 328 326 325 325 325 325 323 321 318 315 315 316 318 320 321 322 322 323 322 321 321 320 320 320 320 320 320 320 320 320 319 319 319 319 319 318 318 318 317 316 316 316 316
343 341 339 337 337 336 334 333 334 333 330 327 326 327 327 328 330 332 333 336 338 337 336 335 332 331 330 330 329 330 332 331 331 331 331 330 330 330 331 331 329 328 328 328 327 325 325 325 326 324 320 317 314 313 316 319 320 321 322 322 322 322 322 321 321 321 321 321 321 321 321 320 320 320 319 319 319 319 319 319 319 318 318 317 317 316 316
341 341 340 339 338 336 332 330 330 329 326 325 326 327 328 329 331 331 331 333 334 334 336 336 332 329 330 329 329 330 331 330 331 332 331 330 330 330 329 329 328 327 327 326 325 325 326 327 326 322 316 314 315 316 318 320 321 321 322 322 322 322 322 322 322 323 322 322 322 322 321 321 321 320 320 320 320 320 320 319 319 318 318 317 316 316 315
340 340 339 337 335 331 328 327 328 328 327 327 329 329 328 330 332 330 330 331 332 332 334 334 331 330 330 329 328 330 331 331 331 331 329 329 329 328 328 327 327 327 327 325 325 327 326 325 324 322 317 315 317 320 321 322 322 322 322 322 322 323 323 322 323 323 323 322 321 321 321 321 320 320 320 320 320 320 320 319 319 319 318 318 317 317 316
341 340 338 335 332 329 327 328 329 330 330 330 331 330 329 330 331 328 328 330 331 331 332 332 330 329 330 330 328 328 330 330 329 327 327 327 326 326 327 327 326 326 325 324 325 327 325 323 323 321 317 316 318 321 322 323 323 323 323 323 323 323 323 323 323 323 322 321 321 320 320 320 320 320 320 320 320 320 320 320 320 319 319 319 318 318 317
340 339 337 334 331 329 329 330 332 332 332 331 331 331 329 329 328 328 330 332 331 329 329 331 330 329 329 329 327 326 328 328 327 326 326 326 325 326 326 325 325 326 324 322 324 326 325 324 323 319 316 318 321 322 322 323 323 323 323 323 323 323 323 323 323 323 323 322 321 321 321 321 321 321 320 320 320 320 320 320 320 320 320 320 319 318 318
338 337 336 334 333 333 334 334 335 335 334 333 332 331 328 328 329 330 331 332 330 328 328 330 329 327 327 327 326 325 326 327 326 326 326 325 325 326 326 325 326 326 323 321 324 326 325 324 321 317 317 321 322 322 323 324 323 323 324 324 324 324 324 324 323 323 322 322 321 321 321 321 320 320 320 320 320 320 320 320 320 320 320 320 319 319 318
338 337 338 338 338 338 338 338 338 338 338 336 335 332 329 329 331 330 329 329 329 328 328 328 327 327 327 327 326 325 325 325 325 326 325 325 325 326 326 326 326 324 322 323 325 325 323 321 319 317 319 322 323 323 324 324 323 323 324 325 325 324 324 323 322 322 322 321 321 321 321 320 320 320 320 320 320 320 320 321 321 321 321 322 321 321 321
340 340 341 340 339 340 340 338 339 341 340 336 334 333 330 329 328 327 326 326 327 327 326 326 327 326 325 324 325 325 325 325 326 325 325 325 325 326 326 325 323 323 323 325 325 323 321 319 317 318 321 323 324 324 325 324 324 324 324 324 324 323 322 322 322 321 321 321 321 321 321 321 321 321 321 321 321 321 321 322 323 323 324 324 324 323 324
342 342 342 341 340 341 341 338 338 340 338 333 331 330 327 324 323 322 323 324 324 324 325 325 325 324 322 323 325 325 325 325 326 325 325 325 326 326 324 323 323 325 325 324 324 323 321 319 319 321 323 324 324 324 324 324 324 324 323 323 323 322 322 322 322 322 322 321 321 321 322 322 322 322 322 322 323 323 324 324 325 326 326 326 326 326 326
343 342 343 342 339 339 340 338 336 335 333 329 328 327 325 322 320 320 322 323 323 322 322 323 323 323 323 323 324 325 326 326 326 325 326 327 326 324 324 324 325 326 326 325 323 322 320 319 321 323 324 323 324 324 324 324 324 323 323 322 322 322 322 322 322 322 321 321 322 322 322 322 323 323 323 323 324 325 326 327 328 328 328 328 328 329 329
341 341 343 342 338 338 339 337 332 330 330 328 327 325 324 323 321 322 322 322 321 321 322 322 322 322 323 324 325 325 327 327 327 326 327 327 325 324 326 327 326 325 325 324 322 321 320 321 322 323 323 324 324 324 323 323 323 323 322 321 321 321 322 322 322 321 322 322 322 323 323 324 324 325 325 325 326 327 327 328 329 329 329 329 329 329 329
339 339 341 339 336 335 336 334 331 331 331 329 326 325 324 324 323 323 322 322 321 322 322 323 323 323 324 325 326 326 327 328 327 326 326 327 326 326 327 327 325 323 323 322 322 321 321 322 323 323 324 324 324 323 323 323 322 322 322 321 321 321 322 322 322 322 322 322 323 324 325 326 326 326 326 327 327 327 328 329 329 329 329 329 329 329 330
341 340 340 339 336 334 333 332 331 330 328 327 325 325 325 324 323 322 322 322 322 322 322 323 324 325 325 326 328 328 327 327 327 326 327 327 327 325 325 325 324 323 322 322 322 322 322 323 323 324 323 323 323 323 323 322 322 322 322 321 321 321 322 322 322 322 323 324 325 326 327 327 328 327 327 327 328 328 328 329 329 329 328 328 329 330 331
343 342 341 339 336 332 331 331 329 326 325 325 326 325 325 324 323 322 323 323 323 324 324 325 326 326 326 328 329 328 327 327 327 327 327 326 325 325 325 324 323 322 322 322 322 323 323 324 324 323 323 323 323 323 322 322 322 322 321 321 322 322 322 322 323 323 325 326 327 328 328 328 328 327 327 327 327 327 328 329 330 329 328 328 329 330 331
339 339 338 336 334 330 328 327 325 323 323 324 324 323 323 323 323 323 324 324 325 327 327 327 327 327 328 329 328 327 326 327 327 327 326 324 324 325 324 322 321 321 322 322 322 323 324 324 324 323 323 323 323 322 322 322 321 322 322 322 323 323 323 324 325 326 327 328 328 328 328 327 327 327 326 326 326 327 329 329 330 330 330 330 330 330 330
335 334 332 332 332 330 328 326 325 324 324 323 323 323 324 324 324 324 325 326 328 328 327 327 328 329 328 327 326 326 327 327 326 326 325 324 325 325 324 322 322 322 322 322 323 324 324 324 323 323 323 322 322 322 322 321 322 323 324 324 324 325 325 326 326 327 327 327 327 327 327 326 326 326 326 326 327 328 329 329 330 331 332 332 330 330 330